Home > Weather > Grand Junction > Past weeks

Flag for U.S.A. Weather for the Past 2 Weeks in Grand Junction, Colorado, U.S.A.

Now
26 °F

Clear.


Feels Like: 17 °F
Forecast: 16 / 45 °F
Wind: 9 mph from East

Location: Walker Field

Current Time: Feb 11, 2016 at 12:17:21 AM

Latest Report: Feb 10, 2016 at 11:53 PM


Visibility: 10 mi

Pressure: 30.46 "Hg (25.52 "Hg at 1398m altitude)

Humidity: 88%

Dew point: 23 °F

Location of Grand JunctionLocation

Historic Weather in Grand Junction — Graph

°F

Grand Junction Temperature Yesterday

Maximum temperature yesterday: 38 °F (at 2:53 PM)
Minimum temperature yesterday: 18 °F (at 7:53 AM)
Average temperature yesterday: 28 °F

High & Low Weather Summary for the Past Weeks

 TemperatureHumidityPressure
High44 °F (Feb 9, 3:53 PM)100% (Jan 30, 7:53 PM)30.85 "Hg (Jan 30, 7:53 PM)
Low0 °F (Feb 6, 6:53 AM)45% (Feb 9, 3:53 PM)29.41 "Hg (Feb 1, 10:00 AM)
Average23 °F83%30.34 "Hg
* Reported Jan 26 10:53 PM — Feb 10 10:53 PM, Grand Junction, Weather by CustomWeather, © 2016

Note: Actual official high and low records may vary slightly from our data, if they occured in-between our weather recording intervals... More about our weather records

Advertising

Grand Junction Weather History for the Previous 24 Hours

 ConditionsComfort  
Time TempWeatherWind HumidityBarometerVisibility
10:53 PM
Wed, Feb 10
26 °FClear.5 mph88%30.47 "Hg10 mi
9:53 PM26 °FClear.5 mph92%30.46 "Hg10 mi
8:53 PM30 °FClear.3 mph82%30.47 "Hg10 mi
7:53 PM30 °FClear.9 mph85%30.49 "Hg10 mi
6:53 PM31 °FClear.3 mph89%30.47 "Hg10 mi
5:53 PM34 °FClear.No wind82%30.45 "Hg10 mi
4:53 PM37 °FSunny.6 mph73%30.44 "Hg10 mi
3:53 PM36 °FSunny.6 mph75%30.44 "Hg10 mi
2:53 PM38 °FSunny.7 mph70%30.43 "Hg10 mi
1:53 PM37 °FSunny.7 mph70%30.46 "Hg10 mi
12:53 PM36 °FSunny.7 mph73%30.48 "Hg10 mi
11:53 AM35 °FSunny.5 mph61%30.53 "Hg10 mi
10:53 AM34 °FSunny.No wind61%30.53 "Hg10 mi
9:53 AM31 °FSunny.No wind69%30.56 "Hg10 mi
8:53 AM25 °FSunny.7 mph85%30.57 "Hg10 mi
7:53 AM18 °FSunny.No wind92%30.58 "Hg10 mi
6:53 AM20 °FClear.No wind89%30.56 "Hg10 mi
5:53 AM20 °FClear.9 mph89%30.55 "Hg10 mi
4:53 AM21 °FClear.7 mph92%30.50 "Hg10 mi
3:53 AM19 °FClear.7 mph92%30.49 "Hg10 mi
2:53 AM21 °FClear.3 mph92%30.52 "Hg10 mi
1:53 AM20 °FClear.3 mph92%30.52 "Hg10 mi
12:53 AM22 °FClear.No wind92%30.52 "Hg10 mi
Weather by CustomWeather, © 2016

See weather overviewHow to use our weather pages